| time (UTC) | temp F | wind direction | speed MPH | gust MPH | rain 1hr in | rain 24hr in | rain mn in | humidity % | barometer mb |
| 20260831035039 | 60 | 22 | 1.0 | 3.0 | 0.00 | 0.00 | 0.00 | 80 | 1020.9 |
| 20260831034538 | 60 | 105 | 0.0 | 2.0 | 0.00 | 0.00 | 0.00 | 80 | 1020.9 |
| 20260831034034 | 60 | 94 | 0.0 | 1.0 | 0.00 | 0.00 | 0.00 | 79 | 1020.9 |
| 20260831033529 | 60 | 74 | 0.0 | 1.0 | 0.00 | 0.00 | 0.00 | 79 | 1020.9 |
| 20260831033025 | 60 | 102 | 0.0 | 1.0 | 0.00 | 0.00 | 0.00 | 79 | 1021.3 |
| 20260831032524 | 60 | 67 | 0.0 | 1.0 | 0.00 | 0.00 | 0.00 | 79 | 1020.9 |
| 20260831032020 | 60 | 102 | 0.0 | 1.0 | 0.00 | 0.00 | 0.00 | 79 | 1021.3 |
| 20260831031519 | 60 | 110 | 1.0 | 2.0 | 0.00 | 0.00 | 0.00 | 79 | 1020.9 |
| 20260831031019 | 61 | 91 | 0.0 | 2.0 | 0.00 | 0.00 | 0.00 | 78 | 1020.9 |
| 20260831030518 | 61 | 164 | 0.0 | 1.0 | 0.00 | 0.00 | 0.00 | 78 | 1020.9 |
| 20260831030017 | 61 | 115 | 0.0 | 1.0 | 0.00 | 0.00 | 0.00 | 78 | 1020.9 |
| 20260831025515 | 61 | 92 | 0.0 | 1.0 | 0.00 | 0.00 | 0.00 | 78 | 1020.9 |
| 20260831025011 | 61 | 86 | 1.0 | 2.0 | 0.00 | 0.00 | 0.00 | 78 | 1020.9 |
| 20260831024501 | 61 | 155 | 0.0 | 1.0 | 0.00 | 0.00 | 0.00 | 77 | 1020.9 |
| 20260831024000 | 61 | 108 | 0.0 | 0.0 | 0.00 | 0.00 | 0.00 | 77 | 1021.3 |
| 20260831023458 | 61 | 65 | 1.0 | 2.0 | 0.00 | 0.00 | 0.00 | 77 | 1021.3 |
| 20260831022953 | 62 | 17 | 2.0 | 4.0 | 0.00 | 0.00 | 0.00 | 77 | 1021.3 |
| 20260831022452 | 62 | 79 | 1.0 | 3.0 | 0.00 | 0.00 | 0.00 | 76 | 1021.3 |
| 20260831021948 | 62 | 345 | 2.0 | 3.0 | 0.00 | 0.00 | 0.00 | 76 | 1021.3 |
| 20260831021446 | 62 | 97 | 0.0 | 0.0 | 0.00 | 0.00 | 0.00 | 76 | 1021.3 |
| 20260831020943 | 62 | 98 | 1.0 | 3.0 | 0.00 | 0.00 | 0.00 | 75 | 1021.3 |
| 20260831020442 | 62 | 63 | 0.0 | 2.0 | 0.00 | 0.00 | 0.00 | 75 | 1021.3 |
| 20260831015937 | 62 | 79 | 1.0 | 1.0 | 0.00 | 0.00 | 0.00 | 75 | 1021.3 |
| 20260831015433 | 62 | 299 | 2.0 | 3.0 | 0.00 | 0.00 | 0.00 | 74 | 1021.6 |
| 20260831014928 | 63 | 0 | 2.0 | 4.0 | 0.00 | 0.00 | 0.00 | 73 | 1021.3 |
| 20260831014423 | 63 | 104 | 0.0 | 3.0 | 0.00 | 0.00 | 0.00 | 72 | 1021.3 |
| 20260831013919 | 63 | 57 | 1.0 | 2.0 | 0.00 | 0.00 | 0.00 | 72 | 1021.3 |
| 20260831013414 | 63 | 103 | 0.0 | 2.0 | 0.00 | 0.00 | 0.00 | 72 | 1021.3 |
| 20260831012908 | 63 | 84 | 0.0 | 1.0 | 0.00 | 0.00 | 0.00 | 71 | 1021.3 |
| 20260831012403 | 64 | 115 | 1.0 | 1.0 | 0.00 | 0.00 | 0.00 | 71 | 1021.6 |
| 20260831011858 | 64 | 88 | 1.0 | 1.0 | 0.00 | 0.00 | 0.00 | 70 | 1021.3 |
| 20260831011352 | 64 | 115 | 0.0 | 2.0 | 0.00 | 0.00 | 0.00 | 70 | 1021.6 |
| 20260831010848 | 64 | 90 | 1.0 | 2.0 | 0.00 | 0.00 | 0.00 | 70 | 1021.6 |
| 20260831010348 | 64 | 84 | 1.0 | 2.0 | 0.00 | 0.00 | 0.00 | 70 | 1021.6 |
| 20260831005844 | 64 | 352 | 2.0 | 2.0 | 0.00 | 0.00 | 0.00 | 70 | 1021.6 |
| 20260831005339 | 64 | 19 | 1.0 | 2.0 | 0.00 | 0.00 | 0.00 | 69 | 1021.6 |
| 20260831004834 | 64 | 81 | 1.0 | 2.0 | 0.00 | 0.00 | 0.00 | 70 | 1021.6 |
| 20260831004330 | 64 | 71 | 0.0 | 2.0 | 0.00 | 0.00 | 0.00 | 69 | 1021.6 |
| 20260831003826 | 64 | 164 | 2.0 | 4.0 | 0.00 | 0.00 | 0.00 | 69 | 1021.9 |
| 20260831003322 | 64 | 98 | 0.0 | 2.0 | 0.00 | 0.00 | 0.00 | 69 | 1021.6 |
| 20260831002820 | 64 | 106 | 0.0 | 1.0 | 0.00 | 0.00 | 0.00 | 69 | 1021.6 |
| 20260831002314 | 63 | 77 | 2.0 | 3.0 | 0.00 | 0.00 | 0.00 | 70 | 1021.9 |
| 20260831001810 | 64 | 73 | 1.0 | 2.0 | 0.00 | 0.00 | 0.00 | 69 | 1021.9 |
| 20260831001305 | 63 | 290 | 2.0 | 2.0 | 0.00 | 0.00 | 0.00 | 69 | 1021.9 |
| 20260831000803 | 64 | 104 | 0.0 | 7.0 | 0.00 | 0.00 | 0.00 | 68 | 1021.9 |
| 20260831000303 | 64 | 47 | 3.0 | 3.0 | 0.00 | 0.00 | 0.00 | 67 | 1021.9 |
| 20260830235801 | 64 | 323 | 3.0 | 6.0 | 0.00 | 0.00 | 0.00 | 67 | 1021.9 |
| 20260830235256 | 65 | 296 | 2.0 | 3.0 | 0.00 | 0.00 | 0.00 | 65 | 1021.9 |
| 20260830234751 | 66 | 358 | 1.0 | 3.0 | 0.00 | 0.00 | 0.00 | 63 | 1021.9 |
| 20260830234247 | 66 | 82 | 1.0 | 2.0 | 0.00 | 0.00 | 0.00 | 63 | 1021.6 |
| 20260830233743 | 66 | 77 | 1.0 | 6.0 | 0.00 | 0.00 | 0.00 | 64 | 1021.9 |
| 20260830233238 | 66 | 215 | 2.0 | 8.0 | 0.00 | 0.00 | 0.00 | 64 | 1021.6 |
| 20260830232733 | 66 | 121 | 0.0 | 4.0 | 0.00 | 0.00 | 0.00 | 63 | 1021.9 |
| 20260830232229 | 65 | 105 | 2.0 | 3.0 | 0.00 | 0.00 | 0.00 | 64 | 1021.9 |
| 20260830231726 | 65 | 45 | 1.0 | 3.0 | 0.00 | 0.00 | 0.00 | 63 | 1021.9 |
| 20260830231225 | 66 | 76 | 1.0 | 3.0 | 0.00 | 0.00 | 0.00 | 62 | 1021.9 |
| 20260830230720 | 66 | 60 | 2.0 | 3.0 | 0.00 | 0.00 | 0.00 | 60 | 1021.9 |
| 20260830230215 | 67 | 244 | 2.0 | 2.0 | 0.00 | 0.00 | 0.00 | 59 | 1021.9 |
| 20260830225709 | 68 | 98 | 1.0 | 4.0 | 0.00 | 0.00 | 0.00 | 59 | 1021.9 |
| 20260830225209 | 68 | 19 | 0.0 | 3.0 | 0.00 | 0.00 | 0.00 | 58 | 1021.9 |
| 20260830224708 | 72 | 301 | 3.0 | 4.0 | 0.00 | 0.00 | 0.00 | 52 | 1021.9 |
| 20260830224204 | 71 | 179 | 3.0 | 4.0 | 0.00 | 0.00 | 0.00 | 52 | 1021.6 |
| 20260830223701 | 71 | 105 | 1.0 | 6.0 | 0.00 | 0.00 | 0.00 | 53 | 1021.9 |
| 20260830223156 | 71 | 216 | 1.0 | 4.0 | 0.00 | 0.00 | 0.00 | 54 | 1021.9 |
| 20260830222650 | 69 | 139 | 1.0 | 2.0 | 0.00 | 0.00 | 0.00 | 55 | 1021.6 |
| 20260830222145 | 69 | 116 | 1.0 | 2.0 | 0.00 | 0.00 | 0.00 | 55 | 1021.9 |
| 20260830221636 | 70 | 77 | 1.0 | 6.0 | 0.00 | 0.00 | 0.00 | 53 | 1021.9 |
| 20260830221132 | 70 | 90 | 0.0 | 3.0 | 0.00 | 0.00 | 0.00 | 55 | 1021.9 |
| 20260830220627 | 70 | 108 | 2.0 | 4.0 | 0.00 | 0.00 | 0.00 | 53 | 1021.9 |
| 20260830220126 | 70 | 139 | 1.0 | 3.0 | 0.00 | 0.00 | 0.00 | 54 | 1022.3 |
| 20260830215625 | 69 | 121 | 0.0 | 4.0 | 0.00 | 0.00 | 0.00 | 55 | 1022.3 |
| 20260830215120 | 71 | 111 | 2.0 | 2.0 | 0.00 | 0.00 | 0.00 | 53 | 1022.3 |
| 20260830214615 | 70 | 106 | 1.0 | 2.0 | 0.00 | 0.00 | 0.00 | 52 | 1022.3 |
| 20260830214109 | 68 | 113 | 2.0 | 3.0 | 0.00 | 0.00 | 0.00 | 55 | 1022.3 |
| 20260830213609 | 69 | 105 | 2.0 | 2.0 | 0.00 | 0.00 | 0.00 | 56 | 1022.3 |
| 20260830213104 | 68 | 110 | 2.0 | 2.0 | 0.00 | 0.00 | 0.00 | 57 | 1022.3 |
| 20260830212600 | 68 | 116 | 2.0 | 4.0 | 0.00 | 0.00 | 0.00 | 58 | 1022.3 |
| 20260830212055 | 69 | 106 | 1.0 | 2.0 | 0.00 | 0.00 | 0.00 | 57 | 1022.3 |
| 20260830211550 | 69 | 110 | 0.0 | 7.0 | 0.00 | 0.00 | 0.00 | 59 | 1022.3 |
| 20260830211049 | 69 | 118 | 0.0 | 1.0 | 0.00 | 0.00 | 0.00 | 58 | 1022.3 |
| 20260830210545 | 68 | 109 | 6.0 | 8.0 | 0.00 | 0.00 | 0.00 | 59 | 1022.3 |
| 20260830210043 | 67 | 190 | 4.0 | 8.0 | 0.00 | 0.00 | 0.00 | 61 | 1022.3 |
| 20260830205541 | 66 | 157 | 5.0 | 6.0 | 0.00 | 0.00 | 0.00 | 64 | 1022.3 |
| 20260830205037 | 66 | 154 | 4.0 | 7.0 | 0.00 | 0.00 | 0.00 | 64 | 1022.3 |
| 20260830204536 | 65 | 159 | 7.0 | 8.0 | 0.00 | 0.00 | 0.00 | 65 | 1022.3 |
| 20260830204036 | 65 | 251 | 1.0 | 4.0 | 0.00 | 0.00 | 0.00 | 67 | 1022.3 |
| 20260830203532 | 64 | 184 | 5.0 | 9.0 | 0.00 | 0.00 | 0.00 | 68 | 1022.3 |
| 20260830203032 | 66 | 99 | 1.0 | 3.0 | 0.00 | 0.00 | 0.00 | 66 | 1022.3 |
| 20260830202527 | 64 | 115 | 4.0 | 8.0 | 0.00 | 0.00 | 0.00 | 68 | 1022.3 |
| 20260830202023 | 66 | 117 | 3.0 | 6.0 | 0.00 | 0.00 | 0.00 | 64 | 1022.3 |
| 20260830201522 | 66 | 100 | 3.0 | 4.0 | 0.00 | 0.00 | 0.00 | 65 | 1022.3 |
| 20260830201017 | 67 | 186 | 4.0 | 7.0 | 0.00 | 0.00 | 0.00 | 64 | 1022.3 |
| 20260830200512 | 69 | 160 | 5.0 | 9.0 | 0.00 | 0.00 | 0.00 | 61 | 1022.3 |
| 20260830200011 | 66 | 156 | 4.0 | 7.0 | 0.00 | 0.00 | 0.00 | 66 | 1022.3 |
| 20260830195507 | 65 | 125 | 1.0 | 3.0 | 0.00 | 0.00 | 0.00 | 68 | 1022.3 |
| 20260830195005 | 64 | 179 | 6.0 | 8.0 | 0.00 | 0.00 | 0.00 | 70 | 1022.3 |
| 20260830194504 | 66 | 87 | 7.0 | 11.0 | 0.00 | 0.00 | 0.00 | 67 | 1022.3 |
| 20260830194004 | 65 | 161 | 2.0 | 7.0 | 0.00 | 0.00 | 0.00 | 66 | 1022.3 |
| 20260830193503 | 66 | 156 | 4.0 | 8.0 | 0.00 | 0.00 | 0.00 | 67 | 1022.6 |
| 20260830192959 | 66 | 128 | 0.0 | 4.0 | 0.00 | 0.00 | 0.00 | 66 | 1022.3 |
| 20260830192455 | 66 | 135 | 2.0 | 6.0 | 0.00 | 0.00 | 0.00 | 65 | 1022.6 |
| 20260830191950 | 65 | 108 | 1.0 | 6.0 | 0.00 | 0.00 | 0.00 | 67 | 1022.3 |
| 20260830191449 | 65 | 131 | 1.0 | 2.0 | 0.00 | 0.00 | 0.00 | 67 | 1022.6 |
| 20260830190940 | 65 | 16 | 1.0 | 2.0 | 0.00 | 0.00 | 0.00 | 68 | 1022.3 |
| 20260830190435 | 64 | 136 | 2.0 | 4.0 | 0.00 | 0.00 | 0.00 | 69 | 1022.3 |
| 20260830185934 | 65 | 103 | 0.0 | 2.0 | 0.00 | 0.00 | 0.00 | 68 | 1022.6 |
| 20260830185429 | 65 | 90 | 1.0 | 7.0 | 0.00 | 0.00 | 0.00 | 69 | 1022.6 |
| 20260830184925 | 65 | 169 | 1.0 | 3.0 | 0.00 | 0.00 | 0.00 | 69 | 1022.6 |
| 20260830184424 | 63 | 107 | 0.0 | 2.0 | 0.00 | 0.00 | 0.00 | 73 | 1022.6 |
| 20260830183923 | 62 | 257 | 2.0 | 3.0 | 0.00 | 0.00 | 0.00 | 74 | 1022.6 |
| 20260830183418 | 62 | 115 | 2.0 | 3.0 | 0.00 | 0.00 | 0.00 | 75 | 1022.6 |
| 20260830182914 | 63 | 106 | 0.0 | 1.0 | 0.00 | 0.00 | 0.00 | 74 | 1022.9 |
| 20260830182409 | 64 | 102 | 1.0 | 2.0 | 0.00 | 0.00 | 0.00 | 72 | 1022.6 |
| 20260830181906 | 63 | 101 | 0.0 | 2.0 | 0.00 | 0.00 | 0.00 | 73 | 1022.6 |
| 20260830181401 | 63 | 90 | 1.0 | 2.0 | 0.00 | 0.00 | 0.00 | 73 | 1022.6 |
| 20260830180900 | 64 | 105 | 1.0 | 2.0 | 0.00 | 0.00 | 0.00 | 72 | 1022.6 |
| 20260830180355 | 64 | 99 | 1.0 | 1.0 | 0.00 | 0.00 | 0.00 | 71 | 1022.6 |
| 20260830175854 | 63 | 120 | 0.0 | 2.0 | 0.00 | 0.00 | 0.00 | 73 | 1022.6 |
| 20260830175348 | 63 | 115 | 3.0 | 4.0 | 0.00 | 0.00 | 0.00 | 74 | 1022.3 |
| 20260830174849 | 63 | 171 | 1.0 | 7.0 | 0.00 | 0.00 | 0.00 | 73 | 1022.3 |
| 20260830174344 | 63 | 97 | 1.0 | 1.0 | 0.00 | 0.00 | 0.00 | 73 | 1022.3 |
| 20260830173839 | 62 | 97 | 1.0 | 2.0 | 0.00 | 0.00 | 0.00 | 74 | 1022.3 |
| 20260830173334 | 63 | 93 | 2.0 | 2.0 | 0.00 | 0.00 | 0.00 | 74 | 1022.3 |
| 20260830172830 | 63 | 163 | 2.0 | 6.0 | 0.00 | 0.00 | 0.00 | 74 | 1022.3 |
| 20260830172327 | 63 | 113 | 1.0 | 2.0 | 0.00 | 0.00 | 0.00 | 73 | 1022.3 |
| 20260830171822 | 62 | 116 | 2.0 | 2.0 | 0.00 | 0.00 | 0.00 | 74 | 1022.3 |
| 20260830171318 | 62 | 102 | 1.0 | 2.0 | 0.00 | 0.00 | 0.00 | 73 | 1022.3 |
| 20260830170813 | 61 | 175 | 4.0 | 6.0 | 0.00 | 0.00 | 0.00 | 75 | 1022.3 |
| 20260830170312 | 62 | 190 | 3.0 | 9.0 | 0.00 | 0.00 | 0.00 | 74 | 1022.3 |
| 20260830165811 | 61 | 141 | 6.0 | 9.0 | 0.00 | 0.00 | 0.00 | 75 | 1022.3 |
| 20260830165307 | 60 | 184 | 4.0 | 7.0 | 0.00 | 0.00 | 0.00 | 77 | 1022.3 |
| 20260830164803 | 60 | 105 | 6.0 | 8.0 | 0.00 | 0.00 | 0.00 | 77 | 1022.3 |
| 20260830164259 | 60 | 181 | 5.0 | 7.0 | 0.00 | 0.00 | 0.00 | 78 | 1022.3 |
| 20260830163755 | 59 | 123 | 1.0 | 4.0 | 0.00 | 0.00 | 0.00 | 79 | 1022.3 |
| 20260830163245 | 59 | 109 | 2.0 | 6.0 | 0.00 | 0.00 | 0.00 | 79 | 1022.6 |
| 20260830162739 | 59 | 105 | 1.0 | 2.0 | 0.00 | 0.00 | 0.00 | 79 | 1022.3 |
| 20260830162236 | 59 | 119 | 2.0 | 4.0 | 0.00 | 0.00 | 0.00 | 80 | 1022.6 |
| 20260830161731 | 59 | 103 | 0.0 | 2.0 | 0.00 | 0.00 | 0.00 | 80 | 1022.3 |
| 20260830161230 | 58 | 107 | 0.0 | 6.0 | 0.00 | 0.00 | 0.00 | 80 | 1022.3 |
| 20260830160726 | 58 | 112 | 3.0 | 3.0 | 0.00 | 0.00 | 0.00 | 80 | 1022.3 |
| 20260830160226 | 58 | 106 | 2.0 | 4.0 | 0.00 | 0.00 | 0.00 | 80 | 1022.3 |
| 20260830155723 | 58 | 119 | 2.0 | 4.0 | 0.00 | 0.00 | 0.00 | 81 | 1022.3 |
| 20260830155218 | 58 | 139 | 0.0 | 3.0 | 0.00 | 0.00 | 0.00 | 81 | 1022.3 |
| 20260830154713 | 57 | 120 | 1.0 | 2.0 | 0.00 | 0.00 | 0.00 | 81 | 1022.3 |
| 20260830154208 | 57 | 117 | 0.0 | 1.0 | 0.00 | 0.00 | 0.00 | 82 | 1022.3 |
| 20260830153705 | 57 | 143 | 1.0 | 3.0 | 0.00 | 0.00 | 0.00 | 82 | 1022.6 |
| 20260830153200 | 57 | 123 | 2.0 | 2.0 | 0.00 | 0.00 | 0.00 | 83 | 1022.3 |
| 20260830152659 | 57 | 152 | 2.0 | 3.0 | 0.00 | 0.00 | 0.00 | 83 | 1022.3 |
| 20260830152158 | 57 | 173 | 2.0 | 3.0 | 0.00 | 0.00 | 0.00 | 82 | 1022.3 |
| 20260830151653 | 57 | 108 | 0.0 | 2.0 | 0.00 | 0.00 | 0.00 | 82 | 1022.3 |
| 20260830151152 | 57 | 111 | 1.0 | 3.0 | 0.00 | 0.00 | 0.00 | 82 | 1022.3 |
| 20260830150648 | 57 | 107 | 0.0 | 1.0 | 0.00 | 0.00 | 0.00 | 82 | 1022.3 |
| 20260830150143 | 57 | 132 | 1.0 | 2.0 | 0.00 | 0.00 | 0.00 | 82 | 1022.3 |
| 20260830145642 | 57 | 117 | 1.0 | 2.0 | 0.00 | 0.00 | 0.00 | 83 | 1022.3 |
| 20260830145137 | 57 | 160 | 2.0 | 2.0 | 0.00 | 0.00 | 0.00 | 83 | 1022.3 |
| 20260830144632 | 57 | 110 | 1.0 | 1.0 | 0.00 | 0.00 | 0.00 | 84 | 1022.3 |
| 20260830144128 | 56 | 119 | 0.0 | 1.0 | 0.00 | 0.00 | 0.00 | 85 | 1022.3 |
| 20260830143625 | 56 | 115 | 0.0 | 0.0 | 0.00 | 0.00 | 0.00 | 85 | 1022.3 |
| 20260830143122 | 56 | 119 | 0.0 | 1.0 | 0.00 | 0.00 | 0.00 | 86 | 1022.3 |
| 20260830142618 | 55 | 123 | 0.0 | 1.0 | 0.00 | 0.00 | 0.00 | 86 | 1022.3 |
| 20260830142112 | 55 | 114 | 1.0 | 1.0 | 0.00 | 0.00 | 0.00 | 86 | 1021.9 |
| 20260830141608 | 55 | 137 | 0.0 | 1.0 | 0.00 | 0.00 | 0.00 | 87 | 1022.3 |
| 20260830141103 | 55 | 145 | 0.0 | 1.0 | 0.00 | 0.00 | 0.00 | 87 | 1022.3 |
| 20260830140557 | 55 | 139 | 1.0 | 1.0 | 0.00 | 0.00 | 0.00 | 87 | 1022.3 |
| 20260830140053 | 55 | 121 | 0.0 | 1.0 | 0.00 | 0.00 | 0.00 | 86 | 1022.3 |
| 20260830135547 | 55 | 142 | 1.0 | 1.0 | 0.00 | 0.00 | 0.00 | 86 | 1022.3 |
| 20260830135042 | 55 | 150 | 1.0 | 2.0 | 0.00 | 0.00 | 0.00 | 85 | 1021.9 |
| 20260830134539 | 55 | 148 | 0.0 | 2.0 | 0.00 | 0.00 | 0.00 | 85 | 1021.9 |
| 20260830134034 | 55 | 177 | 3.0 | 3.0 | 0.00 | 0.00 | 0.00 | 84 | 1021.9 |
| 20260830133529 | 56 | 176 | 1.0 | 2.0 | 0.00 | 0.00 | 0.00 | 84 | 1021.9 |
| 20260830133024 | 56 | 167 | 2.0 | 3.0 | 0.00 | 0.00 | 0.00 | 83 | 1021.9 |
| 20260830132520 | 56 | 111 | 1.0 | 3.0 | 0.00 | 0.00 | 0.00 | 82 | 1021.9 |
| 20260830132020 | 56 | 154 | 1.0 | 3.0 | 0.00 | 0.00 | 0.00 | 83 | 1021.6 |
| 20260830131519 | 56 | 159 | 3.0 | 3.0 | 0.00 | 0.00 | 0.00 | 84 | 1021.9 |
| 20260830131014 | 56 | 164 | 1.0 | 2.0 | 0.00 | 0.00 | 0.00 | 84 | 1021.9 |
| 20260830130514 | 55 | 180 | 3.0 | 3.0 | 0.00 | 0.00 | 0.00 | 84 | 1021.9 |
| 20260830130010 | 55 | 164 | 3.0 | 4.0 | 0.00 | 0.00 | 0.00 | 85 | 1021.6 |
| 20260830125504 | 55 | 182 | 1.0 | 2.0 | 0.00 | 0.00 | 0.00 | 85 | 1021.9 |
| 20260830125003 | 55 | 131 | 1.0 | 4.0 | 0.00 | 0.00 | 0.00 | 85 | 1021.9 |
| 20260830124457 | 55 | 186 | 2.0 | 4.0 | 0.00 | 0.00 | 0.00 | 85 | 1021.9 |
| 20260830123953 | 55 | 184 | 0.0 | 3.0 | 0.00 | 0.00 | 0.00 | 85 | 1021.9 |
| 20260830123450 | 55 | 201 | 3.0 | 3.0 | 0.00 | 0.00 | 0.00 | 85 | 1021.9 |
| 20260830122948 | 55 | 165 | 0.0 | 4.0 | 0.00 | 0.00 | 0.00 | 85 | 1021.9 |
| 20260830122447 | 55 | 168 | 1.0 | 2.0 | 0.00 | 0.00 | 0.00 | 85 | 1021.9 |
| 20260830121941 | 55 | 163 | 2.0 | 3.0 | 0.00 | 0.00 | 0.00 | 85 | 1021.9 |
| 20260830121437 | 55 | 202 | 3.0 | 4.0 | 0.00 | 0.00 | 0.00 | 85 | 1021.9 |
| 20260830120931 | 55 | 50 | 1.0 | 3.0 | 0.00 | 0.00 | 0.00 | 85 | 1021.9 |
| 20260830120427 | 55 | 118 | 0.0 | 3.0 | 0.00 | 0.00 | 0.00 | 85 | 1022.3 |
| 20260830115923 | 55 | 186 | 5.0 | 6.0 | 0.00 | 0.00 | 0.00 | 85 | 1021.9 |
| 20260830115419 | 55 | 177 | 1.0 | 3.0 | 0.00 | 0.00 | 0.00 | 86 | 1022.3 |
| 20260830114915 | 55 | 181 | 2.0 | 3.0 | 0.00 | 0.00 | 0.00 | 85 | 1022.3 |
| 20260830114412 | 55 | 144 | 2.0 | 3.0 | 0.00 | 0.00 | 0.00 | 86 | 1022.3 |
| 20260830113911 | 55 | 158 | 0.0 | 1.0 | 0.00 | 0.00 | 0.00 | 85 | 1022.3 |
| 20260830113406 | 55 | 144 | 0.0 | 1.0 | 0.00 | 0.00 | 0.00 | 85 | 1022.3 |
| 20260830112901 | 55 | 141 | 1.0 | 2.0 | 0.00 | 0.00 | 0.00 | 85 | 1021.9 |
| 20260830112357 | 56 | 124 | 0.0 | 0.0 | 0.00 | 0.00 | 0.00 | 84 | 1022.3 |
| 20260830111854 | 56 | 136 | 0.0 | 0.0 | 0.00 | 0.00 | 0.00 | 84 | 1021.9 |
| 20260830111349 | 56 | 115 | 0.0 | 1.0 | 0.00 | 0.00 | 0.00 | 84 | 1022.3 |
| 20260830110844 | 56 | 200 | 3.0 | 4.0 | 0.00 | 0.00 | 0.00 | 84 | 1022.3 |
| 20260830110340 | 56 | 198 | 3.0 | 4.0 | 0.00 | 0.00 | 0.00 | 84 | 1022.3 |
| 20260830105839 | 56 | 142 | 0.0 | 1.0 | 0.00 | 0.00 | 0.00 | 84 | 1021.9 |
| 20260830105336 | 56 | 129 | 0.0 | 0.0 | 0.00 | 0.00 | 0.00 | 84 | 1021.9 |
| 20260830104832 | 56 | 144 | 1.0 | 2.0 | 0.00 | 0.00 | 0.00 | 84 | 1021.9 |
| 20260830104328 | 56 | 119 | 1.0 | 3.0 | 0.00 | 0.00 | 0.00 | 84 | 1021.9 |
| 20260830103827 | 56 | 168 | 1.0 | 2.0 | 0.00 | 0.00 | 0.00 | 83 | 1021.9 |
| 20260830103323 | 56 | 159 | 0.0 | 2.0 | 0.00 | 0.00 | 0.00 | 82 | 1021.9 |
| 20260830102821 | 56 | 123 | 1.0 | 2.0 | 0.00 | 0.00 | 0.00 | 82 | 1021.9 |
| 20260830102317 | 56 | 168 | 0.0 | 1.0 | 0.00 | 0.00 | 0.00 | 82 | 1021.9 |
| 20260830101813 | 56 | 140 | 0.0 | 2.0 | 0.00 | 0.00 | 0.00 | 82 | 1021.9 |
| 20260830101308 | 56 | 135 | 0.0 | 1.0 | 0.00 | 0.00 | 0.00 | 82 | 1021.9 |
| 20260830100807 | 56 | 135 | 0.0 | 0.0 | 0.00 | 0.00 | 0.00 | 82 | 1021.9 |
| 20260830100302 | 56 | 119 | 0.0 | 1.0 | 0.00 | 0.00 | 0.00 | 82 | 1021.9 |
| 20260830095800 | 56 | 148 | 1.0 | 3.0 | 0.00 | 0.00 | 0.00 | 82 | 1021.9 |
| 20260830095257 | 56 | 96 | 1.0 | 2.0 | 0.00 | 0.00 | 0.00 | 82 | 1021.9 |
| 20260830094752 | 56 | 137 | 1.0 | 4.0 | 0.00 | 0.00 | 0.00 | 82 | 1021.9 |
| 20260830094249 | 56 | 147 | 1.0 | 4.0 | 0.00 | 0.00 | 0.00 | 82 | 1021.6 |
| 20260830093748 | 56 | 283 | 1.0 | 3.0 | 0.00 | 0.00 | 0.00 | 82 | 1021.6 |
| 20260830093244 | 56 | 124 | 0.0 | 2.0 | 0.00 | 0.00 | 0.00 | 82 | 1021.6 |
| 20260830092738 | 56 | 198 | 1.0 | 3.0 | 0.00 | 0.00 | 0.00 | 82 | 1021.9 |
| 20260830092236 | 56 | 278 | 2.0 | 3.0 | 0.00 | 0.00 | 0.00 | 82 | 1021.9 |
| 20260830091732 | 56 | 240 | 1.0 | 2.0 | 0.00 | 0.00 | 0.00 | 82 | 1021.6 |
| 20260830091231 | 56 | 145 | 1.0 | 3.0 | 0.00 | 0.00 | 0.00 | 81 | 1021.6 |
| 20260830090730 | 56 | 105 | 1.0 | 6.0 | 0.00 | 0.00 | 0.00 | 81 | 1021.9 |
| 20260830090226 | 56 | 122 | 1.0 | 2.0 | 0.00 | 0.00 | 0.00 | 82 | 1021.6 |
| 20260830085725 | 56 | 162 | 0.0 | 2.0 | 0.00 | 0.00 | 0.00 | 82 | 1021.9 |
| 20260830085221 | 56 | 122 | 1.0 | 1.0 | 0.00 | 0.00 | 0.00 | 82 | 1021.9 |
| 20260830084716 | 56 | 193 | 1.0 | 3.0 | 0.00 | 0.00 | 0.00 | 82 | 1021.9 |
| 20260830084212 | 56 | 316 | 2.0 | 2.0 | 0.00 | 0.00 | 0.00 | 82 | 1021.6 |
| 20260830083706 | 56 | 115 | 0.0 | 1.0 | 0.00 | 0.00 | 0.00 | 82 | 1021.9 |
| 20260830083201 | 56 | 186 | 1.0 | 2.0 | 0.00 | 0.00 | 0.00 | 82 | 1021.9 |
| 20260830082656 | 56 | 211 | 1.0 | 2.0 | 0.00 | 0.00 | 0.00 | 82 | 1021.6 |
| 20260830082152 | 56 | 163 | 0.0 | 3.0 | 0.00 | 0.00 | 0.00 | 82 | 1021.6 |
| 20260830081647 | 56 | 111 | 0.0 | 2.0 | 0.00 | 0.00 | 0.00 | 82 | 1021.6 |
| 20260830081146 | 56 | 101 | 1.0 | 1.0 | 0.00 | 0.00 | 0.00 | 82 | 1021.6 |
| 20260830080641 | 56 | 109 | 0.0 | 2.0 | 0.00 | 0.00 | 0.00 | 82 | 1021.6 |
| 20260830080137 | 56 | 94 | 0.0 | 1.0 | 0.00 | 0.00 | 0.00 | 82 | 1021.6 |
| 20260830075636 | 56 | 94 | 0.0 | 2.0 | 0.00 | 0.00 | 0.00 | 81 | 1021.6 |
| 20260830075132 | 56 | 119 | 0.0 | 3.0 | 0.00 | 0.00 | 0.00 | 82 | 1021.6 |
| 20260830074627 | 56 | 88 | 0.0 | 1.0 | 0.00 | 0.00 | 0.00 | 82 | 1021.6 |
| 20260830074123 | 56 | 109 | 0.0 | 1.0 | 0.00 | 0.00 | 0.00 | 81 | 1021.6 |
| 20260830073619 | 56 | 112 | 0.0 | 2.0 | 0.00 | 0.00 | 0.00 | 81 | 1021.6 |
| 20260830073114 | 56 | 90 | 0.0 | 9.0 | 0.00 | 0.00 | 0.00 | 81 | 1021.6 |
| 20260830072609 | 55 | 349 | 2.0 | 4.0 | 0.00 | 0.00 | 0.00 | 82 | 1021.6 |
| 20260830072109 | 55 | 232 | 1.0 | 2.0 | 0.00 | 0.00 | 0.00 | 82 | 1021.6 |
| 20260830071605 | 56 | 113 | 1.0 | 2.0 | 0.00 | 0.00 | 0.00 | 82 | 1021.3 |
| 20260830071102 | 56 | 86 | 2.0 | 3.0 | 0.00 | 0.00 | 0.00 | 82 | 1021.6 |
| 20260830070603 | 56 | 101 | 1.0 | 8.0 | 0.00 | 0.00 | 0.00 | 82 | 1021.6 |
| 20260830070058 | 55 | 63 | 2.0 | 3.0 | 0.00 | 0.00 | 0.00 | 82 | 1021.3 |
| 20260830065557 | 55 | 100 | 0.0 | 4.0 | 0.00 | 0.13 | 0.13 | 83 | 1021.6 |
| 20260830065056 | 55 | 102 | 2.0 | 4.0 | 0.00 | 0.13 | 0.13 | 83 | 1021.3 |
| 20260830064550 | 55 | 137 | 0.0 | 2.0 | 0.00 | 0.13 | 0.13 | 83 | 1021.6 |
| 20260830064045 | 55 | 146 | 1.0 | 2.0 | 0.00 | 0.13 | 0.13 | 84 | 1021.6 |
| 20260830063539 | 55 | 89 | 0.0 | 1.0 | 0.00 | 0.13 | 0.13 | 84 | 1021.6 |
| 20260830063038 | 55 | 43 | 1.0 | 3.0 | 0.00 | 0.13 | 0.13 | 84 | 1021.6 |
| 20260830062533 | 55 | 27 | 2.0 | 3.0 | 0.00 | 0.13 | 0.13 | 84 | 1021.6 |
| 20260830062028 | 55 | 75 | 2.0 | 4.0 | 0.00 | 0.13 | 0.13 | 84 | 1021.6 |
| 20260830061522 | 55 | 94 | 0.0 | 1.0 | 0.00 | 0.13 | 0.13 | 84 | 1021.6 |
| 20260830061019 | 55 | 338 | 2.0 | 4.0 | 0.00 | 0.13 | 0.13 | 84 | 1021.6 |
| 20260830060515 | 55 | 87 | 0.0 | 2.0 | 0.00 | 0.13 | 0.13 | 84 | 1021.6 |
| 20260830060011 | 55 | 39 | 1.0 | 2.0 | 0.00 | 0.13 | 0.13 | 83 | 1021.6 |
| 20260830055506 | 55 | 102 | 1.0 | 3.0 | 0.00 | 0.13 | 0.13 | 83 | 1021.6 |
| 20260830055002 | 55 | 136 | 1.0 | 1.0 | 0.00 | 0.13 | 0.13 | 83 | 1021.6 |
| 20260830054457 | 55 | 6 | 2.0 | 6.0 | 0.00 | 0.13 | 0.13 | 83 | 1021.6 |
| 20260830053953 | 55 | 112 | 1.0 | 4.0 | 0.00 | 0.13 | 0.13 | 83 | 1021.6 |
| 20260830053448 | 55 | 127 | 0.0 | 2.0 | 0.00 | 0.13 | 0.13 | 83 | 1021.9 |
| 20260830052947 | 55 | 187 | 1.0 | 4.0 | 0.00 | 0.13 | 0.13 | 83 | 1021.9 |
| 20260830052443 | 55 | 179 | 2.0 | 2.0 | 0.00 | 0.13 | 0.13 | 83 | 1021.9 |
| 20260830051938 | 55 | 273 | 1.0 | 2.0 | 0.00 | 0.13 | 0.13 | 83 | 1021.9 |
| 20260830051433 | 55 | 152 | 0.0 | 1.0 | 0.00 | 0.13 | 0.13 | 83 | 1021.9 |
| 20260830050932 | 55 | 319 | 1.0 | 1.0 | 0.00 | 0.13 | 0.13 | 83 | 1021.9 |
| 20260830050428 | 55 | 141 | 1.0 | 6.0 | 0.00 | 0.13 | 0.13 | 83 | 1021.9 |
| 20260830045926 | 55 | 62 | 1.0 | 3.0 | 0.00 | 0.13 | 0.13 | 83 | 1021.9 |
| 20260830045421 | 55 | 255 | 1.0 | 2.0 | 0.00 | 0.13 | 0.13 | 82 | 1021.9 |
| 20260830044920 | 56 | 161 | 0.0 | 2.0 | 0.00 | 0.13 | 0.13 | 82 | 1021.9 |
| 20260830044416 | 55 | 77 | 1.0 | 1.0 | 0.00 | 0.13 | 0.13 | 82 | 1021.9 |
| 20260830043911 | 55 | 119 | 2.0 | 3.0 | 0.00 | 0.13 | 0.13 | 82 | 1021.9 |
| 20260830043405 | 56 | 86 | 0.0 | 1.0 | 0.00 | 0.13 | 0.13 | 82 | 1021.9 |
| 20260830042903 | 56 | 131 | 1.0 | 8.0 | 0.00 | 0.13 | 0.13 | 82 | 1021.9 |
| 20260830042352 | 56 | 271 | 2.0 | 3.0 | 0.00 | 0.13 | 0.13 | 82 | 1021.9 |
| 20260830041851 | 56 | 105 | 2.0 | 3.0 | 0.00 | 0.13 | 0.13 | 81 | 1021.9 |
| 20260830041350 | 56 | 97 | 1.0 | 3.0 | 0.00 | 0.13 | 0.13 | 81 | 1021.6 |
| 20260830040846 | 56 | 131 | 1.0 | 2.0 | 0.00 | 0.13 | 0.13 | 81 | 1021.6 |
| 20260830040342 | 56 | 29 | 1.0 | 2.0 | 0.00 | 0.13 | 0.13 | 81 | 1021.6 |
| 20260830035841 | 56 | 230 | 0.0 | 2.0 | 0.00 | 0.13 | 0.13 | 81 | 1021.6 |